Regional Weather Roundup
Issued by NWS

Home | Current Version | Previous Version | Graphics & Text | Print | Product List | Glossary On
Versions: 1 2 3 4 5 6 7 8 9 10 11 12 13 14 15 16 17 18 19 20 21 22 23 24 25 26 27 28 29 30 31 32 33 34 35 36 37 38 39 40 41 42 43 44 45 46 47 48 49 50
000
ASUS44 KMEG 291910
RWRTN
TENNESSEE HOURLY STATE WEATHER ROUNDUP
NATIONAL WEATHER SERVICE MEMPHIS TN
200 PM CDT SAT APR 29 2017

TNZ002-004-019-021-049-052-054-088>092-292000-
WEST TENNESSEE

CITY           SKY/WX    TMP DP  RH WIND       PRES   REMARKS
MEMPHIS INTL   PTSUNNY   85  69  58 S21G32    29.85F
NWS MEMPHIS      N/A     87 N/A N/A MISG        N/A
JACKSON        PTSUNNY   85  69  58 S13G22    29.90F
DYERSBURG      CLOUDY    84  69  60 S13G24    29.88S
SOMERVILLE     MOSUNNY   86  70  58 S13G22    29.88R HX  90
UNION CITY     MOSUNNY   84  68  58 S21       29.87S
BOLIVAR        PTSUNNY   84  70  61 SE18G29   29.89F
HUNTINGDON     MOSUNNY   84  70  61 S12G28    29.90F
LEXINGTON      MOSUNNY   84  68  58 S15G28    29.94F
SAVANNAH       PTSUNNY   84  68  58 S20G35    29.94S
$$

TNZ008-025-027-028-033-062-065-066-292000-
NORTH MIDDLE TENNESSEE

CITY           SKY/WX    TMP DP  RH WIND       PRES   REMARKS
NASHVILLE      CLOUDY    88  64  44 S18G29    29.98F
PORTLAND       SUNNY     86  66  51 S10G22    29.99F
CLARKSVILLE    PTSUNNY   84  65  52 S14       29.94F
SMYRNA         PTSUNNY   89  68  49 S14G22    29.99S HX  93
COOKEVILLE     MOSUNNY   88  66  48 S10G21    30.02S HX  90
GALLATIN       MOSUNNY   88  66  48 VRB7      30.01F HX  90
CROSSVILLE     MOSUNNY   82  63  52 S13G24    30.11S
$$

TNZ061-075-076-078-094-096-097-292000-
SOUTH MIDDLE TENNESSEE

CITY           SKY/WX    TMP DP  RH WIND       PRES   REMARKS
FAYETTEVILLE   MOSUNNY   86  66  51 S18G26    30.02S
TULLAHOMA      MOSUNNY   86  63  45 S17       30.03F
WINCHESTER     MOSUNNY   88  66  48 S16G24    30.04S HX  90
MCMINNVILLE    SUNNY     88  66  48 S9        30.03S HX  90
COLUMBIA       MOSUNNY   88  72  58 S14       29.97S HX  94
SHELBYVILLE    MOSUNNY   88  70  55 S18       30.01S HX  92
$$

TNZ017-018-042-046-047-292000-
NORTHEAST TENNESSEE

CITY           SKY/WX    TMP DP  RH WIND       PRES   REMARKS
TRI CITIES     PTSUNNY   88  66  48 W9        30.10F HX  90
ELIZABETHTON   SUNNY     90  63  40 VRB5      30.09F HX  90
$$

TNZ012-013-036-069-073-074-292000-
CENTRAL EAST TENNESSEE

CITY           SKY/WX    TMP DP  RH WIND       PRES   REMARKS
KNOXVILLE      PTSUNNY   88  64  44 S17G25    30.06F
OAK RIDGE      MOSUNNY   88  62  41 S9        30.08F
DOWNTOWN KNOXV SUNNY     90  66  45 SW12G18   30.06F HX  92
GATLINBURG     MOSUNNY   86  64  48 CALM      30.06S
MORRISTOWN     SUNNY     88  66  48 NW8       30.09S HX  90
JACKSBORO      SUNNY     88  64  45 MISG      30.10F
$$

TNZ083-085-099-292000-
SOUTHEAST TENNESSEE

CITY           SKY/WX    TMP DP  RH WIND       PRES   REMARKS
CHATTANOOGA    PTSUNNY   87  66  49 S15G22    30.06F
$$

SKY/WX REPORTED AS FAIR MEANS FEW OR NO CLOUDS BELOW
12 THOUSAND FEET.





USA.gov is the U.S. government's official web portal to all federal, state and local government web resources and services.